This is the latest recevied weather packets stored in our database for station/object KS5S. If no packets are shown the sender has not sent any weather packets the latest 10 day(s).
| Time | Temp. | Humidity | Pressure | Rain* | Wind** | Luminosity | Snow |
|---|---|---|---|---|---|---|---|
| 1778083520 | 13.89° C | 86% | 1011.5 hPa | 0 mm | - | 406 W/m² | - |
| 1778083217 | 13.89° C | 86% | 1011.1 hPa | 0 mm | - | 797 W/m² | - |
| 1778082915 | 13.89° C | 87% | 1011.5 hPa | 0 mm | - | 509 W/m² | - |
| 1778081806 | 12.78° C | 90% | 1011.7 hPa | 0 mm | - | 264 W/m² | - |
| 1778081504 | 12.78° C | 90% | 1012 hPa | 0 mm | - | 177 W/m² | - |
| 1778081200 | 12.78° C | 91% | 1011.9 hPa | 0 mm | - | 164 W/m² | - |
| 1778080898 | 12.22° C | 91% | 1012.1 hPa | 0.51 mm | - | 158 W/m² | - |
| 1778080597 | 12.22° C | 91% | 1012.3 hPa | 0.51 mm | - | 172 W/m² | - |
| 1778080293 | 12.22° C | 91% | 1012.4 hPa | 0 mm | - | 108 W/m² | - |
| 1778079990 | 12.22° C | 91% | 1012.8 hPa | 0 mm | - | 73 W/m² | - |
| 1778079687 | 12.22° C | 90% | 1012.4 hPa | 0 mm | - | 63 W/m² | - |
| 1778079384 | 12.22° C | 90% | 1012.7 hPa | 0 mm | - | 68 W/m² | - |
| 1778079080 | 12.22° C | 89% | 1012.8 hPa | 0 mm | - | 52 W/m² | - |
| 1778078778 | 12.22° C | 87% | 1012.8 hPa | 0 mm | - | 39 W/m² | - |
| 1778078474 | 12.22° C | 86% | 1012.5 hPa | 0 mm | - | 35 W/m² | - |
| 1778078172 | 12.78° C | 85% | 1014 hPa | 0 mm | - | 24 W/m² | - |
| 1778077870 | 12.78° C | 86% | 1013.7 hPa | 0 mm | - | 29 W/m² | - |
| 1778077568 | 12.78° C | 86% | 1013.8 hPa | 0 mm | - | 36 W/m² | - |
| 1778077266 | 12.78° C | 85% | 1013 hPa | 0 mm | - | 58 W/m² | - |
| 1778076963 | 12.78° C | 85% | 1012.7 hPa | 0 mm | - | 37 W/m² | - |
| 1778076662 | 12.78° C | 85% | 1011.9 hPa | 0 mm | - | 52 W/m² | - |
| 1778076359 | 12.78° C | 85% | 1011.5 hPa | 0 mm | - | 42 W/m² | - |
| 1778076056 | 12.78° C | 84% | 1011.9 hPa | 0 mm | - | 51 W/m² | - |
| 1778075753 | 13.33° C | 83% | 1011.7 hPa | 0 mm | - | 57 W/m² | - |
| 1778075449 | 13.33° C | 82% | 1011.7 hPa | 0 mm | - | 61 W/m² | - |
* Rain latest hour (hover to see other rain measurements)
** Current wind speed in m/s (hover to see current wind gust speed)